Year,Month,Day,Hour,Minute,Value (Times are PST for temperature in C)
2014,07,19,00,23,16.10
2014,07,19,00,44,16.10
2014,07,19,01,07,15.90
2014,07,19,01,30,16.00
2014,07,19,01,54,15.70
2014,07,19,02,19,15.70
2014,07,19,02,41,15.70
2014,07,19,03,04,16.10
2014,07,19,03,28,16.30
2014,07,19,03,52,17.00
2014,07,19,04,18,17.10
2014,07,19,04,43,16.60
2014,07,19,05,06,14.60
2014,07,19,05,29,14.40
2014,07,19,05,53,13.40
2014,07,19,06,18,13.70
2014,07,19,06,41,14.20
2014,07,19,07,04,13.70
2014,07,19,07,29,13.80
2014,07,19,07,53,14.00
2014,07,19,08,17,13.70
2014,07,19,08,40,13.40
2014,07,19,09,06,13.50
2014,07,19,09,33,13.30
2014,07,19,09,58,13.30
2014,07,19,10,21,13.40
2014,07,19,10,46,13.90
2014,07,19,11,09,14.20
2014,07,19,11,37,14.90
2014,07,19,12,02,15.80
2014,07,19,12,25,17.20
2014,07,19,12,49,16.60
2014,07,19,13,13,16.90
2014,07,19,13,40,17.60
2014,07,19,14,05,19.00
2014,07,19,14,28,20.50
2014,07,19,14,52,21.30
2014,07,19,15,16,21.20
2014,07,19,15,43,21.30
2014,07,19,16,09,21.20
2014,07,19,16,33,21.30
2014,07,19,16,57,21.70
2014,07,19,17,21,21.40
2014,07,19,17,48,21.20
2014,07,19,18,14,20.90
2014,07,19,18,38,20.50
2014,07,19,19,02,19.80
2014,07,19,19,26,19.30
2014,07,19,19,51,19.00
2014,07,19,20,16,18.60
2014,07,19,20,40,18.20
2014,07,19,21,04,17.40
2014,07,19,21,28,16.80
2014,07,19,21,52,15.70
2014,07,19,22,18,15.30
2014,07,19,22,42,16.30
2014,07,19,23,05,16.60
2014,07,19,23,30,16.00
2014,07,19,23,55,15.70
